DECAYED

CZ-2D R/B, 59558 (Decayed)

Orbit data source: Space-Track

CZ-2D R/B, 59558 was space debris in LEO originally from a launch on Sat, 20 Apr 2024 UTC launched from the Xichang Space Center, China (XSC). Debris objects in space refer to the collection of defunct objects orbiting the Earth. Examples of debris include non-operational satellites, rocket bodies, and fragments generated from explosions, collisions, or faulty payload assembly.

Not visible in the next 10 days
Identifier
59558, 2024-075B
Orbit
Decayed
Country
Flag of CNCN / PRC
Related business
Manufacturer
BWYIC
Mission
Decayed spacecraft
Bus & Motor
CZ-2 STAGE 2, Unknown motor
Mass
4,006 kg wet, 4,006 kg dry
Launch date (UTC)
2024-04-20 (2 years ago)
Launch vehicle
Unknown
Launch site
Xichang Space Center, China (XSC)
Object type
Payload
Rocket body
Debris
Shape & HBR
Cyl, 4.5 m
Radar Cross Section
27.824 m², Large (>1 m²)

Expand to show TLE details & history
Last TLE update: 1 year ago

TLE from 1 year ago
0 CZ-2D R/B
1 59558U 24075B   25142.21743938  .05071819  14054-5  60636-3 0  9995
2 59558  35.0616  83.2271 0005409 225.9538 273.2258 16.35318442 61755
Epoch: 2025-05-22T05:13Z
TLE epoch observation values (Epoch: 2025-05-22T05:13:06.762Z)
Latitude
22.17843°
Longitude
-90.41746°
Altitude
176.696 km
Speed
7.805 km/s
True Right ascension
15h 11m 48s
True Declination
22° 02' 52"
Sunlit
Object was in full shadow at epoch
Visualization orbit readout
Latitude
Unknown
Longitude
Unknown
Altitude
Unknown
Speed
Unknown
Apparent Right ascension
Unknown
Apparent Declination
Unknown
Sunlit
N/A
Visualization observer readout
Local Sidereal Time
23:07:19
Azimuth
Unknown
Elevation
Unknown
Doppler factor
Unknown
Orbital elements
Apogee altitude
185.232 km
Perigee altitude
178.135 km
Semi-major axis
6,559.82 km
Eccentricity
0.00054
Inclination
35.0616°
RAAN
83.2271°
Arg. of periapsis
225.9538°
True anomaly
273.16391°
Mean anomaly
273.2258°
Eccentric anomaly
273.19486°
Mean motion
4.08512 °/min
Orbital period
88.12 mins
BSTAR
0.00060636
Loading maneuver chart data...
Computing Atmospheric mass density...
Loading historical data...
Loading historical data...
Loading historical data...
Loading historical data...
Loading historical data...
Loading historical data...
Loading historical data...
Other satellites on launch #75 in the year 2024 (2024-04-20 UTC)

Documentation

Showing up to 5 results
|